N714BV BGGH-BIKF

Flight info

Callsign N714BV
Flight time 1h 38m
Altitude 39000
Route EVULO1A EVULO DCT DEVNU DCT GOKIK DCT GIRUG GIRUG4K
Aircraft C750/M-SBDE3FGHRWXY/S

Departure

Time 2026-04-29 20:11
Airport Nuuk International Airport (BGGH)

Arrival

Time 2026-04-29 21:49
Airport Keflavik International Airport (BIKF)
Time Latitude Longitude Altitude Speed Heading
2026-04-29 19:49 64.18830 -51.67549 278 ft 0 kts 108°
2026-04-29 20:05 64.18828 -51.67510 278 ft 0 kts 81°
2026-04-29 20:05 64.18831 -51.67493 278 ft 5 kts 64°
2026-04-29 20:06 64.18859 -51.67541 278 ft 10 kts 289°
2026-04-29 20:06 64.18890 -51.67685 278 ft 10 kts 315°
2026-04-29 20:06 64.18937 -51.67678 278 ft 5 kts 29°
2026-04-29 20:06 64.18964 -51.67653 278 ft 4 kts 21°
2026-04-29 20:07 64.19003 -51.67622 278 ft 9 kts 18°
2026-04-29 20:07 64.19061 -51.67597 278 ft 7 kts 345°
2026-04-29 20:07 64.19079 -51.67679 278 ft 10 kts 281°
2026-04-29 20:07 64.19098 -51.67826 278 ft 9 kts 288°
2026-04-29 20:08 64.19095 -51.67950 278 ft 9 kts 223°
2026-04-29 20:08 64.19042 -51.67988 279 ft 15 kts 191°
2026-04-29 20:08 64.18873 -51.68097 278 ft 23 kts 197°
2026-04-29 20:08 64.18704 -51.68221 279 ft 28 kts 199°
2026-04-29 20:09 64.18505 -51.68372 280 ft 32 kts 198°
2026-04-29 20:09 64.18284 -51.68525 276 ft 31 kts 195°
2026-04-29 20:09 64.18180 -51.68540 277 ft 9 kts 172°
2026-04-29 20:09 64.18155 -51.68564 276 ft 0 kts 242°
2026-04-29 20:10 64.18170 -51.68608 276 ft 8 kts 352°
2026-04-29 20:10 64.18197 -51.68594 276 ft 0 kts 20°
2026-04-29 20:10 64.18245 -51.68556 276 ft 33 kts 18°
2026-04-29 20:11 64.18770 -51.68171 278 ft 119 kts 18°
2026-04-29 20:11 64.19644 -51.67521 525 ft 136 kts 18°
2026-04-29 20:11 64.20553 -51.66819 1086 ft 139 kts 20°
2026-04-29 20:11 64.21506 -51.66523 1554 ft 153 kts 347°
2026-04-29 20:12 64.22494 -51.68013 1671 ft 186 kts 322°
2026-04-29 20:12 64.23282 -51.70630 1724 ft 218 kts 291°
2026-04-29 20:12 64.23348 -51.74346 1803 ft 254 kts 255°
2026-04-29 20:12 64.22326 -51.77597 2673 ft 252 kts 215°
2026-04-29 20:13 64.20698 -51.78738 3703 ft 247 kts 179°
2026-04-29 20:13 64.19546 -51.78471 4391 ft 246 kts 171°
2026-04-29 20:13 64.17298 -51.77560 5616 ft 249 kts 170°
2026-04-29 20:13 64.15564 -51.76977 6359 ft 255 kts 172°
2026-04-29 20:14 64.13789 -51.76432 7117 ft 259 kts 172°
2026-04-29 20:14 64.12069 -51.75026 7760 ft 268 kts 150°
2026-04-29 20:14 64.10481 -51.72787 8693 ft 270 kts 150°
2026-04-29 20:14 64.08846 -51.70579 9497 ft 276 kts 152°
2026-04-29 20:15 64.07166 -51.68366 10222 ft 282 kts 152°
2026-04-29 20:15 64.05534 -51.65548 10257 ft 313 kts 133°
2026-04-29 20:15 64.04617 -51.60902 10607 ft 329 kts 102°
2026-04-29 20:15 64.04692 -51.55711 11330 ft 332 kts 79°
2026-04-29 20:16 64.05330 -51.50617 11966 ft 336 kts 72°
2026-04-29 20:16 64.06077 -51.45527 12582 ft 340 kts 72°
2026-04-29 20:16 64.06736 -51.40296 13197 ft 345 kts 75°
2026-04-29 20:16 64.07348 -51.34955 13790 ft 350 kts 75°
2026-04-29 20:17 64.08008 -51.29552 14289 ft 356 kts 73°
2026-04-29 20:17 64.08708 -51.24070 14766 ft 362 kts 73°
2026-04-29 20:17 64.09420 -51.18505 15230 ft 367 kts 71°
2026-04-29 20:17 64.10571 -51.13251 15638 ft 372 kts 57°
2026-04-29 20:18 64.11953 -51.08213 16333 ft 376 kts 55°
2026-04-29 20:18 64.13361 -51.03083 16931 ft 385 kts 56°
2026-04-29 20:18 64.14729 -50.97842 17565 ft 392 kts 57°
2026-04-29 20:18 64.16130 -50.92417 18209 ft 399 kts 57°
2026-04-29 20:19 64.17580 -50.86929 18637 ft 406 kts 56°
2026-04-29 20:19 64.19044 -50.81413 19149 ft 397 kts 56°
2026-04-29 20:19 64.20460 -50.75993 19761 ft 395 kts 56°
2026-04-29 20:19 64.21872 -50.70559 20393 ft 397 kts 55°
2026-04-29 20:20 64.23292 -50.65109 21071 ft 399 kts 54°
2026-04-29 20:20 64.24718 -50.59647 21717 ft 397 kts 54°
2026-04-29 20:20 64.26134 -50.54187 22406 ft 398 kts 54°
2026-04-29 20:20 64.27548 -50.48697 23093 ft 399 kts 54°
2026-04-29 20:21 64.28967 -50.43197 23720 ft 401 kts 53°
2026-04-29 20:21 64.30401 -50.37643 24291 ft 406 kts 52°
2026-04-29 20:21 64.31864 -50.31965 24616 ft 422 kts 52°
2026-04-29 20:21 64.33406 -50.25971 24645 ft 446 kts 53°
2026-04-29 20:22 64.35018 -50.19650 24644 ft 468 kts 53°
2026-04-29 20:22 64.36695 -50.13031 24687 ft 487 kts 54°
2026-04-29 20:22 64.38229 -50.05886 24836 ft 506 kts 64°
2026-04-29 20:22 64.39285 -49.98084 25368 ft 512 kts 74°
2026-04-29 20:23 64.40029 -49.89989 25878 ft 517 kts 76°
2026-04-29 20:23 64.40769 -49.81868 26507 ft 517 kts 75°
2026-04-29 20:23 64.41530 -49.73671 26902 ft 524 kts 75°
2026-04-29 20:23 64.42291 -49.65393 27423 ft 529 kts 75°
2026-04-29 20:24 64.43043 -49.57001 27877 ft 535 kts 75°
2026-04-29 20:24 64.43796 -49.48527 28355 ft 540 kts 75°
2026-04-29 20:24 64.44561 -49.39969 28804 ft 546 kts 75°
2026-04-29 20:24 64.45332 -49.31308 29281 ft 551 kts 75°
2026-04-29 20:25 64.46099 -49.22566 29754 ft 557 kts 75°
2026-04-29 20:25 64.46867 -49.13721 30189 ft 562 kts 75°
2026-04-29 20:25 64.47636 -49.04813 30652 ft 564 kts 75°
2026-04-29 20:25 64.48404 -48.95886 31203 ft 563 kts 75°
2026-04-29 20:26 64.49155 -48.87047 32176 ft 554 kts 75°
2026-04-29 20:26 64.49890 -48.78333 33090 ft 546 kts 76°
2026-04-29 20:26 64.50614 -48.69724 33872 ft 541 kts 76°
2026-04-29 20:26 64.51328 -48.61178 34549 ft 537 kts 76°
2026-04-29 20:27 64.52029 -48.52687 35159 ft 534 kts 76°
2026-04-29 20:27 64.52255 -48.49938 35362 ft 533 kts 76°
2026-04-29 20:27 64.53406 -48.35830 36403 ft 528 kts 77°
2026-04-29 20:27 64.54074 -48.27573 37029 ft 525 kts 77°
2026-04-29 20:28 64.54740 -48.19273 37677 ft 522 kts 77°
2026-04-29 20:28 64.55398 -48.11003 38332 ft 518 kts 77°
2026-04-29 20:28 64.56048 -48.02780 38901 ft 516 kts 77°
2026-04-29 20:28 64.56698 -47.94513 39012 ft 526 kts 78°
2026-04-29 20:29 64.57358 -47.86048 39000 ft 537 kts 78°
2026-04-29 20:29 64.58024 -47.77415 39000 ft 547 kts 78°
2026-04-29 20:29 64.59376 -47.59690 39008 ft 565 kts 78°
2026-04-29 20:30 64.60740 -47.41505 39017 ft 572 kts 78°
2026-04-29 20:30 64.62090 -47.23168 39021 ft 575 kts 78°
2026-04-29 20:31 64.63411 -47.04900 39021 ft 572 kts 79°
2026-04-29 20:31 64.64491 -46.89734 39029 ft 570 kts 79°
2026-04-29 20:32 64.65771 -46.71445 39030 ft 571 kts 79°
2026-04-29 20:32 64.67028 -46.53134 39043 ft 571 kts 79°
2026-04-29 20:33 64.68264 -46.34803 39043 ft 571 kts 79°
2026-04-29 20:33 64.69475 -46.16463 39030 ft 571 kts 80°
2026-04-29 20:34 64.70664 -45.98111 39029 ft 571 kts 80°
2026-04-29 20:34 64.71830 -45.79746 39027 ft 571 kts 80°
2026-04-29 20:35 64.72974 -45.61355 39026 ft 571 kts 80°
2026-04-29 20:35 64.74095 -45.42956 39018 ft 571 kts 81°
2026-04-29 20:36 64.75193 -45.24524 39018 ft 571 kts 81°
2026-04-29 20:36 64.76262 -45.06218 39018 ft 571 kts 81°
2026-04-29 20:37 64.77314 -44.87762 39003 ft 571 kts 81°
2026-04-29 20:37 64.78344 -44.69297 39002 ft 571 kts 81°
2026-04-29 20:38 64.79350 -44.50823 38999 ft 571 kts 82°
2026-04-29 20:38 64.80335 -44.32330 38997 ft 571 kts 82°
2026-04-29 20:39 64.81295 -44.13820 38990 ft 571 kts 82°
2026-04-29 20:39 64.82233 -43.95297 39003 ft 571 kts 82°
2026-04-29 20:40 64.83148 -43.76768 38992 ft 571 kts 82°
2026-04-29 20:40 64.84039 -43.58223 38993 ft 571 kts 83°
2026-04-29 20:41 64.84907 -43.39678 38999 ft 571 kts 83°
2026-04-29 20:41 64.85753 -43.21109 38983 ft 571 kts 83°
2026-04-29 20:42 64.86575 -43.02534 38982 ft 571 kts 83°
2026-04-29 20:42 64.87374 -42.83930 38995 ft 572 kts 83°
2026-04-29 20:43 64.88151 -42.65308 38976 ft 572 kts 83°
2026-04-29 20:43 64.88899 -42.46811 38985 ft 571 kts 84°
2026-04-29 20:44 64.89629 -42.28171 38983 ft 572 kts 84°
2026-04-29 20:44 64.90340 -42.09423 38966 ft 577 kts 84°
2026-04-29 20:45 64.91027 -41.90613 38977 ft 570 kts 84°
2026-04-29 20:45 64.91677 -41.72212 38919 ft 556 kts 84°
2026-04-29 20:46 64.92299 -41.54035 38920 ft 553 kts 84°
2026-04-29 20:46 64.92895 -41.35864 38889 ft 554 kts 84°
2026-04-29 20:47 64.93471 -41.17667 38846 ft 556 kts 85°
2026-04-29 20:47 64.94025 -40.99460 38847 ft 554 kts 85°
2026-04-29 20:48 64.94552 -40.81385 38806 ft 551 kts 85°
2026-04-29 20:48 64.95066 -40.63072 38793 ft 565 kts 86°
2026-04-29 20:49 64.95560 -40.44594 38771 ft 569 kts 86°
2026-04-29 20:49 64.96033 -40.25941 38768 ft 570 kts 86°
2026-04-29 20:50 64.96487 -40.07259 38724 ft 570 kts 86°
2026-04-29 20:50 64.96914 -39.88580 38726 ft 568 kts 86°
2026-04-29 20:51 64.97316 -39.70066 38703 ft 563 kts 87°
2026-04-29 20:51 64.97692 -39.51640 38670 ft 560 kts 87°
2026-04-29 20:52 64.98049 -39.33170 38673 ft 566 kts 87°
2026-04-29 20:52 64.98382 -39.14548 38677 ft 568 kts 87°
2026-04-29 20:53 64.98695 -38.95885 38679 ft 569 kts 87°
2026-04-29 20:53 64.98983 -38.77224 38672 ft 568 kts 88°
2026-04-29 20:54 64.99373 -38.49195 38671 ft 568 kts 88°
2026-04-29 20:55 64.99603 -38.30514 38669 ft 568 kts 88°
2026-04-29 20:55 64.99810 -38.11851 38649 ft 566 kts 89°
2026-04-29 20:56 64.99993 -37.93263 38675 ft 566 kts 89°
2026-04-29 20:56 65.00152 -37.74820 38674 ft 566 kts 89°
2026-04-29 20:57 65.00288 -37.56308 38666 ft 566 kts 89°
2026-04-29 20:57 65.00402 -37.37676 38666 ft 566 kts 89°
2026-04-29 20:58 65.00493 -37.19059 38666 ft 566 kts 89°
2026-04-29 20:58 65.00560 -37.00414 38664 ft 566 kts 90°
2026-04-29 20:59 65.00605 -36.81799 38663 ft 565 kts 90°
2026-04-29 20:59 65.00626 -36.63179 38659 ft 567 kts 90°
2026-04-29 21:00 65.00624 -36.44542 38657 ft 567 kts 90°
2026-04-29 21:00 65.00599 -36.26018 38657 ft 567 kts 90°
2026-04-29 21:01 65.00551 -36.07370 38656 ft 567 kts 90°
2026-04-29 21:01 65.00476 -35.88720 38656 ft 567 kts 91°
2026-04-29 21:02 64.99992 -35.70124 38661 ft 567 kts 95°
2026-04-29 21:02 64.99452 -35.51543 38661 ft 567 kts 94°
2026-04-29 21:03 64.98913 -35.32936 38661 ft 568 kts 95°
2026-04-29 21:03 64.98323 -35.14344 38666 ft 568 kts 94°
2026-04-29 21:04 64.97734 -34.95748 38664 ft 567 kts 95°
2026-04-29 21:04 64.97103 -34.77189 38675 ft 565 kts 95°
2026-04-29 21:05 64.96466 -34.58673 38674 ft 566 kts 95°
2026-04-29 21:05 64.95793 -34.40161 38678 ft 566 kts 95°
2026-04-29 21:06 64.95112 -34.21793 38675 ft 566 kts 96°
2026-04-29 21:06 64.94396 -34.03291 38670 ft 567 kts 96°
2026-04-29 21:07 64.93661 -33.84788 38670 ft 566 kts 96°
2026-04-29 21:07 64.92902 -33.66330 38684 ft 564 kts 96°
2026-04-29 21:08 64.92123 -33.47901 38682 ft 564 kts 96°
2026-04-29 21:08 64.91320 -33.29491 38681 ft 564 kts 97°
2026-04-29 21:09 64.90495 -33.11093 38692 ft 564 kts 97°
2026-04-29 21:09 64.89647 -32.92711 38692 ft 564 kts 97°
2026-04-29 21:10 64.88779 -32.74380 38682 ft 563 kts 97°
2026-04-29 21:10 64.87889 -32.56086 38694 ft 562 kts 98°
2026-04-29 21:11 64.86985 -32.37955 38694 ft 562 kts 98°
2026-04-29 21:11 64.86051 -32.19705 38689 ft 562 kts 98°
2026-04-29 21:12 64.85097 -32.01488 38703 ft 562 kts 98°
2026-04-29 21:12 64.84119 -31.83259 38703 ft 561 kts 98°
2026-04-29 21:13 64.83119 -31.65055 38714 ft 562 kts 99°
2026-04-29 21:13 64.82099 -31.46920 38711 ft 560 kts 99°
2026-04-29 21:14 64.81056 -31.28766 38712 ft 561 kts 99°
2026-04-29 21:14 64.79992 -31.10629 38711 ft 561 kts 99°
2026-04-29 21:15 64.78937 -30.92518 38710 ft 561 kts 99°
2026-04-29 21:15 64.77787 -30.74451 38708 ft 560 kts 101°
2026-04-29 21:16 64.76669 -30.56376 38719 ft 559 kts 99°
2026-04-29 21:16 64.75525 -30.38378 38721 ft 559 kts 101°
2026-04-29 21:17 64.74343 -30.20370 38719 ft 559 kts 100°
2026-04-29 21:17 64.73170 -30.02495 38727 ft 559 kts 101°
2026-04-29 21:18 64.71946 -29.84553 38734 ft 559 kts 101°
2026-04-29 21:18 64.70924 -29.69521 38734 ft 558 kts 101°
2026-04-29 21:19 64.69662 -29.51610 38751 ft 557 kts 102°
2026-04-29 21:19 64.68396 -29.33727 38750 ft 557 kts 102°
2026-04-29 21:20 64.67107 -29.16003 38740 ft 557 kts 102°
2026-04-29 21:20 64.65792 -28.98132 38746 ft 558 kts 102°
2026-04-29 21:21 64.64451 -28.80280 38744 ft 558 kts 102°
2026-04-29 21:21 64.63092 -28.62454 38753 ft 558 kts 103°
2026-04-29 21:22 64.61707 -28.44615 38755 ft 559 kts 103°
2026-04-29 21:22 64.60305 -28.26815 38754 ft 558 kts 103°
2026-04-29 21:23 64.58880 -28.09047 38760 ft 558 kts 103°
2026-04-29 21:23 64.57434 -27.91284 38722 ft 558 kts 104°
2026-04-29 21:24 64.55975 -27.73644 38760 ft 558 kts 104°
2026-04-29 21:24 64.54487 -27.55937 38764 ft 558 kts 104°
2026-04-29 21:25 64.52979 -27.38253 38763 ft 558 kts 104°
2026-04-29 21:25 64.51451 -27.20606 38763 ft 557 kts 105°
2026-04-29 21:26 64.49723 -27.03093 38768 ft 554 kts 111°
2026-04-29 21:26 64.46864 -26.86607 38745 ft 551 kts 117°
2026-04-29 21:26 64.45398 -26.78425 37946 ft 545 kts 116°
2026-04-29 21:27 64.44074 -26.70351 37279 ft 528 kts 115°
2026-04-29 21:27 64.42751 -26.62446 36599 ft 528 kts 117°
2026-04-29 21:27 64.41337 -26.54598 35907 ft 529 kts 118°
2026-04-29 21:27 64.39918 -26.46734 35211 ft 530 kts 117°
2026-04-29 21:28 64.38551 -26.38822 34517 ft 530 kts 117°
2026-04-29 21:28 64.37191 -26.30921 33829 ft 529 kts 118°
2026-04-29 21:28 64.35788 -26.23065 33094 ft 528 kts 118°
2026-04-29 21:28 64.34373 -26.15258 32396 ft 527 kts 118°
2026-04-29 21:29 64.32980 -26.07441 31703 ft 527 kts 118°
2026-04-29 21:29 64.31607 -25.99669 31022 ft 512 kts 118°
2026-04-29 21:29 64.30306 -25.92372 30375 ft 488 kts 120°
2026-04-29 21:29 64.29005 -25.85263 29712 ft 476 kts 120°
2026-04-29 21:30 64.27731 -25.78320 29075 ft 469 kts 121°
2026-04-29 21:30 64.26483 -25.71433 28460 ft 463 kts 121°
2026-04-29 21:30 64.25251 -25.64638 27861 ft 457 kts 121°
2026-04-29 21:30 64.24022 -25.57938 27262 ft 452 kts 121°
2026-04-29 21:31 64.22799 -25.51330 26676 ft 447 kts 121°
2026-04-29 21:31 64.21588 -25.44789 26088 ft 442 kts 121°
2026-04-29 21:31 64.20397 -25.38313 25510 ft 438 kts 121°
2026-04-29 21:31 64.19215 -25.31920 24938 ft 433 kts 122°
2026-04-29 21:32 64.18035 -25.25606 24379 ft 428 kts 122°
2026-04-29 21:32 64.16866 -25.19365 23818 ft 424 kts 122°
2026-04-29 21:32 64.15710 -25.13191 23231 ft 419 kts 122°
2026-04-29 21:32 64.14562 -25.07080 22649 ft 416 kts 122°
2026-04-29 21:33 64.13417 -25.01015 22118 ft 413 kts 122°
2026-04-29 21:33 64.12289 -24.94994 21561 ft 412 kts 121°
2026-04-29 21:33 64.11460 -24.88670 21010 ft 419 kts 110°
2026-04-29 21:33 64.11109 -24.81985 20473 ft 427 kts 100°
2026-04-29 21:34 64.11229 -24.75161 19922 ft 430 kts 92°
2026-04-29 21:34 64.11470 -24.68363 19360 ft 426 kts 92°
2026-04-29 21:34 64.11680 -24.61630 18801 ft 422 kts 93°
2026-04-29 21:34 64.11878 -24.54940 18244 ft 419 kts 93°
2026-04-29 21:35 64.12082 -24.48403 17660 ft 416 kts 92°
2026-04-29 21:35 64.12291 -24.41827 17113 ft 412 kts 92°
2026-04-29 21:35 64.12486 -24.35302 16554 ft 409 kts 92°
2026-04-29 21:35 64.12673 -24.28820 16039 ft 406 kts 92°
2026-04-29 21:36 64.12859 -24.22444 15731 ft 390 kts 91°
2026-04-29 21:36 64.13037 -24.16159 15006 ft 395 kts 92°
2026-04-29 21:36 64.13214 -24.09889 14469 ft 394 kts 92°
2026-04-29 21:36 64.13390 -24.03637 13962 ft 392 kts 92°
2026-04-29 21:37 64.13561 -23.97428 13462 ft 389 kts 92°
2026-04-29 21:37 64.13727 -23.91242 12986 ft 387 kts 92°
2026-04-29 21:37 64.13891 -23.85199 12483 ft 369 kts 92°
2026-04-29 21:37 64.14045 -23.79513 12010 ft 346 kts 92°
2026-04-29 21:38 64.14181 -23.74155 11566 ft 329 kts 92°
2026-04-29 21:38 64.14305 -23.68975 11140 ft 323 kts 92°
2026-04-29 21:38 64.14430 -23.63877 10721 ft 319 kts 92°
2026-04-29 21:38 64.14550 -23.58837 10309 ft 315 kts 92°
2026-04-29 21:39 64.14662 -23.53836 9733 ft 313 kts 92°
2026-04-29 21:39 64.14765 -23.48921 9274 ft 310 kts 92°
2026-04-29 21:39 64.14868 -23.44025 8595 ft 305 kts 92°
2026-04-29 21:39 64.14972 -23.39222 7928 ft 299 kts 92°
2026-04-29 21:40 64.15074 -23.34507 7281 ft 294 kts 92°
2026-04-29 21:40 64.15175 -23.29856 6638 ft 290 kts 92°
2026-04-29 21:40 64.15277 -23.25271 5986 ft 286 kts 92°
2026-04-29 21:40 64.15375 -23.20735 5319 ft 284 kts 92°
2026-04-29 21:41 64.15471 -23.16231 4677 ft 282 kts 92°
2026-04-29 21:41 64.15567 -23.11753 4005 ft 280 kts 92°
2026-04-29 21:41 64.15663 -23.07316 3348 ft 278 kts 92°
2026-04-29 21:41 64.15756 -23.02904 2683 ft 277 kts 92°
2026-04-29 21:42 64.15839 -22.98516 2031 ft 274 kts 93°
2026-04-29 21:42 64.15924 -22.94237 1780 ft 257 kts 92°
2026-04-29 21:42 64.16016 -22.90373 1782 ft 239 kts 93°
2026-04-29 21:42 64.16115 -22.86613 1776 ft 236 kts 93°
2026-04-29 21:43 64.16215 -22.82895 1777 ft 233 kts 93°
2026-04-29 21:43 64.16141 -22.79243 1791 ft 227 kts 105°
2026-04-29 21:43 64.15864 -22.75695 1785 ft 226 kts 108°
2026-04-29 21:43 64.15584 -22.72145 1788 ft 225 kts 108°
2026-04-29 21:44 64.15290 -22.68629 1809 ft 223 kts 109°
2026-04-29 21:44 64.14976 -22.65119 1782 ft 223 kts 108°
2026-04-29 21:44 64.14572 -22.61789 1781 ft 207 kts 117°
2026-04-29 21:44 64.13806 -22.59490 1645 ft 168 kts 160°
2026-04-29 21:45 64.12753 -22.59560 1606 ft 154 kts 205°
2026-04-29 21:45 64.11741 -22.60287 1756 ft 154 kts 193°
2026-04-29 21:45 64.10661 -22.60436 1812 ft 156 kts 187°
2026-04-29 21:45 64.09578 -22.60495 1826 ft 155 kts 188°
2026-04-29 21:46 64.08509 -22.60507 1806 ft 154 kts 186°
2026-04-29 21:46 64.07443 -22.60507 1783 ft 153 kts 186°
2026-04-29 21:46 64.06501 -22.60495 1675 ft 120 kts 188°
2026-04-29 21:46 64.05746 -22.60511 1521 ft 101 kts 189°
2026-04-29 21:47 64.05057 -22.60510 1389 ft 98 kts 189°
2026-04-29 21:47 64.04385 -22.60517 1268 ft 97 kts 189°
2026-04-29 21:47 64.03716 -22.60502 1120 ft 95 kts 189°
2026-04-29 21:47 64.03066 -22.60473 999 ft 89 kts 191°
2026-04-29 21:48 64.02440 -22.60515 862 ft 94 kts 192°
2026-04-29 21:48 64.01795 -22.60551 745 ft 92 kts 189°
2026-04-29 21:48 64.01151 -22.60548 602 ft 92 kts 187°
2026-04-29 21:48 64.00520 -22.60555 482 ft 91 kts 187°
2026-04-29 21:49 63.99839 -22.60571 356 ft 100 kts 185°
2026-04-29 21:49 63.99170 -22.60539 215 ft 96 kts 187°
2026-04-29 21:49 63.98536 -22.60546 174 ft 81 kts 186°
2026-04-29 21:49 63.98152 -22.60540 168 ft 28 kts 181°
2026-04-29 21:50 63.97977 -22.60542 167 ft 25 kts 179°
2026-04-29 21:50 63.97795 -22.60544 169 ft 27 kts 181°
2026-04-29 21:50 63.97618 -22.60545 170 ft 26 kts 180°
2026-04-29 21:50 63.97456 -22.60545 169 ft 18 kts 179°
2026-04-29 21:51 63.97393 -22.60428 168 ft 15 kts 112°
2026-04-29 21:51 63.97361 -22.60254 167 ft 0 kts 112°
2026-04-29 21:52 63.97361 -22.60253 167 ft 0 kts 112°
2026-04-29 21:52 63.97334 -22.60108 167 ft 17 kts 112°
2026-04-29 21:52 63.97285 -22.59837 166 ft 20 kts 113°
2026-04-29 21:52 63.97235 -22.59562 166 ft 13 kts 112°
2026-04-29 21:53 63.97225 -22.59431 166 ft 8 kts 67°
2026-04-29 21:53 63.97265 -22.59369 166 ft 5 kts 22°
2026-04-29 21:53 63.97283 -22.59352 167 ft 5 kts 22°
2026-04-29 21:53 63.97298 -22.59334 167 ft 1 kts 44°
2026-04-29 21:54 63.97300 -22.59312 167 ft 1 kts 86°
2026-04-29 21:54 63.97292 -22.59271 167 ft 4 kts 113°
2026-04-29 21:54 63.97287 -22.59245 167 ft 2 kts 110°
2026-04-29 21:54 63.97282 -22.59215 167 ft 1 kts 110°